Time,TemperatureF,DewpointF,PressureIn,WindDirection,WindDirectionDegrees,WindSpeedMPH,WindSpeedGustMPH,Humidity,HourlyPrecipIn,Conditions,Clouds,dailyrainin,SoftwareType,DateUTC
2013-02-03 00:00:00,55.0,48.9,30.16,West,262,0.0,1.0,80,0.00,,,0.00,Weather View 32 v70,2013-02-03 05:00:00,
2013-02-03 00:01:00,55.0,48.9,30.16,West,262,0.0,1.0,80,0.00,,,0.00,Weather View 32 v70,2013-02-03 05:01:00,
2013-02-03 00:02:00,55.0,48.9,30.16,West,262,0.0,1.0,80,0.00,,,0.00,Weather View 32 v70,2013-02-03 05:02:00,
2013-02-03 00:03:00,55.0,48.9,30.16,West,261,0.0,1.0,80,0.00,,,0.00,Weather View 32 v70,2013-02-03 05:03:00,
2013-02-03 00:08:00,55.0,48.9,30.16,West,262,0.0,1.0,80,0.00,,,0.00,Weather View 32 v70,2013-02-03 05:08:00,
2013-02-03 00:13:00,55.0,48.9,30.16,West,261,0.0,1.0,80,0.00,,,0.00,Weather View 32 v70,2013-02-03 05:13:00,
2013-02-03 00:18:00,55.0,48.9,30.16,West,263,0.0,3.0,80,0.00,,,0.00,Weather View 32 v70,2013-02-03 05:18:00,
2013-02-03 00:23:00,55.0,48.9,30.16,West,263,0.0,3.0,80,0.00,,,0.00,Weather View 32 v70,2013-02-03 05:23:00,
2013-02-03 00:28:00,55.0,48.6,30.16,West,263,0.0,3.0,79,0.00,,,0.00,Weather View 32 v70,2013-02-03 05:28:00,
2013-02-03 00:30:00,55.0,48.6,30.15,West,263,0.0,3.0,79,0.00,,,0.00,Weather View 32 v70,2013-02-03 05:30:00,
2013-02-03 00:33:00,55.0,48.6,30.15,West,263,3.0,3.0,79,0.00,,,0.00,Weather View 32 v70,2013-02-03 05:33:00,
2013-02-03 00:38:00,55.0,48.3,30.15,West,263,0.0,3.0,78,0.00,,,0.00,Weather View 32 v70,2013-02-03 05:38:00,
2013-02-03 00:43:00,55.0,48.3,30.15,West,271,0.0,3.0,78,0.00,,,0.00,Weather View 32 v70,2013-02-03 05:43:00,
2013-02-03 00:48:00,55.0,48.3,30.15,West,271,0.0,3.0,78,0.00,,,0.00,Weather View 32 v70,2013-02-03 05:48:00,
2013-02-03 00:53:00,55.0,47.9,30.15,West,271,0.0,3.0,77,0.00,,,0.00,Weather View 32 v70,2013-02-03 05:53:00,
2013-02-03 00:58:00,55.0,47.9,30.15,West,271,1.0,3.0,77,0.00,,,0.00,Weather View 32 v70,2013-02-03 05:58:00,
2013-02-03 01:03:00,55.0,47.9,30.15,West,271,0.0,3.0,77,0.00,,,0.00,Weather View 32 v70,2013-02-03 06:03:00,
2013-02-03 01:08:00,55.0,47.9,30.15,West,271,0.0,3.0,77,0.00,,,0.00,Weather View 32 v70,2013-02-03 06:08:00,
2013-02-03 01:13:00,55.0,47.9,30.15,West,271,0.0,3.0,77,0.00,,,0.00,Weather View 32 v70,2013-02-03 06:13:00,
2013-02-03 01:18:00,55.0,47.9,30.15,West,271,0.0,3.0,77,0.00,,,0.00,Weather View 32 v70,2013-02-03 06:18:00,
2013-02-03 01:23:00,55.0,47.9,30.15,West,273,0.0,3.0,77,0.00,,,0.00,Weather View 32 v70,2013-02-03 06:23:00,
2013-02-03 01:28:00,55.0,47.9,30.15,West,276,0.0,3.0,77,0.00,,,0.00,Weather View 32 v70,2013-02-03 06:28:00,
2013-02-03 01:30:00,55.0,47.9,30.15,West,276,0.0,3.0,77,0.00,,,0.00,Weather View 32 v70,2013-02-03 06:30:00,
2013-02-03 01:33:00,55.0,47.6,30.14,West,276,0.0,3.0,76,0.00,,,0.00,Weather View 32 v70,2013-02-03 06:33:00,
2013-02-03 01:38:00,55.0,47.6,30.14,West,279,0.0,3.0,76,0.00,,,0.00,Weather View 32 v70,2013-02-03 06:38:00,
2013-02-03 01:43:00,55.0,47.6,30.14,West,279,0.0,3.0,76,0.00,,,0.00,Weather View 32 v70,2013-02-03 06:43:00,
2013-02-03 01:48:00,55.0,47.6,30.14,West,279,0.0,3.0,76,0.00,,,0.00,Weather View 32 v70,2013-02-03 06:48:00,
2013-02-03 01:53:00,55.0,47.6,30.14,West,279,0.0,3.0,76,0.00,,,0.00,Weather View 32 v70,2013-02-03 06:53:00,
2013-02-03 01:58:00,55.0,47.6,30.14,West,279,0.0,3.0,76,0.00,,,0.00,Weather View 32 v70,2013-02-03 06:58:00,
2013-02-03 02:03:00,55.0,47.6,30.14,West,279,0.0,3.0,76,0.00,,,0.00,Weather View 32 v70,2013-02-03 07:03:00,
2013-02-03 02:08:00,55.0,47.6,30.14,West,279,0.0,3.0,76,0.00,,,0.00,Weather View 32 v70,2013-02-03 07:08:00,
2013-02-03 02:13:00,55.0,47.6,30.14,West,279,0.0,3.0,76,0.00,,,0.00,Weather View 32 v70,2013-02-03 07:13:00,
2013-02-03 02:18:00,54.0,46.6,30.14,West,279,0.0,3.0,76,0.00,,,0.00,Weather View 32 v70,2013-02-03 07:18:00,
2013-02-03 02:24:00,54.0,46.6,30.14,West,279,0.0,3.0,76,0.00,,,0.00,Weather View 32 v70,2013-02-03 07:24:00,
2013-02-03 02:29:00,54.0,46.6,30.14,West,279,0.0,3.0,76,0.00,,,0.00,Weather View 32 v70,2013-02-03 07:29:00,
2013-02-03 02:30:00,54.0,46.9,30.14,West,279,0.0,3.0,77,0.00,,,0.00,Weather View 32 v70,2013-02-03 07:30:00,
2013-02-03 02:34:00,54.0,46.9,30.14,West,279,0.0,3.0,77,0.00,,,0.00,Weather View 32 v70,2013-02-03 07:34:00,
2013-02-03 02:39:00,54.0,46.9,30.14,West,279,0.0,2.0,77,0.00,,,0.00,Weather View 32 v70,2013-02-03 07:39:00,
2013-02-03 02:44:00,54.0,46.9,30.14,West,279,0.0,2.0,77,0.00,,,0.00,Weather View 32 v70,2013-02-03 07:44:00,
2013-02-03 02:49:00,54.0,47.3,30.13,West,279,0.0,2.0,78,0.00,,,0.00,Weather View 32 v70,2013-02-03 07:49:00,
2013-02-03 02:54:00,53.0,46.6,30.13,West,279,0.0,2.0,79,0.00,,,0.00,Weather View 32 v70,2013-02-03 07:54:00,
2013-02-03 02:59:00,53.0,46.6,30.13,West,279,0.0,2.0,79,0.00,,,0.00,Weather View 32 v70,2013-02-03 07:59:00,
2013-02-03 03:04:00,53.0,47.0,30.13,West,279,0.0,2.0,80,0.00,,,0.00,Weather View 32 v70,2013-02-03 08:04:00,
2013-02-03 03:09:00,52.0,46.3,30.13,West,279,0.0,1.0,81,0.00,,,0.00,Weather View 32 v70,2013-02-03 08:09:00,
2013-02-03 03:14:00,52.0,46.3,30.13,West,279,0.0,1.0,81,0.00,,,0.00,Weather View 32 v70,2013-02-03 08:14:00,
2013-02-03 03:19:00,52.0,46.7,30.13,West,279,0.0,1.0,82,0.00,,,0.00,Weather View 32 v70,2013-02-03 08:19:00,
2013-02-03 03:24:00,52.0,47.0,30.13,West,279,0.0,1.0,83,0.00,,,0.00,Weather View 32 v70,2013-02-03 08:24:00,
2013-02-03 03:29:00,51.0,46.0,30.13,West,279,0.0,1.0,83,0.00,,,0.00,Weather View 32 v70,2013-02-03 08:29:00,
2013-02-03 03:30:00,51.0,46.0,30.13,West,279,0.0,1.0,83,0.00,,,0.00,Weather View 32 v70,2013-02-03 08:30:00,
2013-02-03 03:34:00,51.0,46.0,30.13,West,279,0.0,1.0,83,0.00,,,0.00,Weather View 32 v70,2013-02-03 08:34:00,
2013-02-03 03:39:00,51.0,46.3,30.13,West,279,0.0,1.0,84,0.00,,,0.00,Weather View 32 v70,2013-02-03 08:39:00,
2013-02-03 03:44:00,50.0,45.3,30.13,West,279,0.0,1.0,84,0.00,,,0.00,Weather View 32 v70,2013-02-03 08:44:00,
2013-02-03 03:49:00,50.0,45.3,30.13,West,279,0.0,0.0,84,0.00,,,0.00,Weather View 32 v70,2013-02-03 08:49:00,
2013-02-03 03:54:00,50.0,45.7,30.13,West,279,0.0,0.0,85,0.00,,,0.00,Weather View 32 v70,2013-02-03 08:54:00,
2013-02-03 03:59:00,50.0,45.7,30.13,West,279,0.0,0.0,85,0.00,,,0.00,Weather View 32 v70,2013-02-03 08:59:00,
2013-02-03 04:04:00,49.0,45.0,30.13,West,279,0.0,0.0,86,0.00,,,0.00,Weather View 32 v70,2013-02-03 09:04:00,
2013-02-03 04:09:00,49.0,45.0,30.13,West,279,0.0,0.0,86,0.00,,,0.00,Weather View 32 v70,2013-02-03 09:09:00,
2013-02-03 04:14:00,48.0,44.0,30.13,West,279,0.0,0.0,86,0.00,,,0.00,Weather View 32 v70,2013-02-03 09:14:00,
2013-02-03 04:19:00,48.0,44.3,30.13,West,279,0.0,0.0,87,0.00,,,0.00,Weather View 32 v70,2013-02-03 09:19:00,
2013-02-03 04:24:00,48.0,44.3,30.14,West,279,0.0,0.0,87,0.00,,,0.00,Weather View 32 v70,2013-02-03 09:24:00,
2013-02-03 04:29:00,48.0,44.6,30.13,West,279,0.0,0.0,88,0.00,,,0.00,Weather View 32 v70,2013-02-03 09:29:00,
2013-02-03 04:30:00,48.0,44.6,30.13,West,279,0.0,0.0,88,0.00,,,0.00,Weather View 32 v70,2013-02-03 09:30:00,
2013-02-03 04:34:00,47.0,43.6,30.14,West,279,0.0,0.0,88,0.00,,,0.00,Weather View 32 v70,2013-02-03 09:34:00,
2013-02-03 04:39:00,47.0,43.6,30.14,West,279,0.0,0.0,88,0.00,,,0.00,Weather View 32 v70,2013-02-03 09:39:00,
2013-02-03 04:44:00,47.0,43.6,30.14,West,279,0.0,0.0,88,0.00,,,0.00,Weather View 32 v70,2013-02-03 09:44:00,
2013-02-03 04:49:00,46.0,42.9,30.14,West,279,0.0,0.0,89,0.00,,,0.00,Weather View 32 v70,2013-02-03 09:49:00,
2013-02-03 04:54:00,46.0,42.9,30.14,West,279,0.0,0.0,89,0.00,,,0.00,Weather View 32 v70,2013-02-03 09:54:00,
2013-02-03 04:59:00,46.0,42.9,30.14,West,279,0.0,0.0,89,0.00,,,0.00,Weather View 32 v70,2013-02-03 09:59:00,
2013-02-03 05:04:00,46.0,42.9,30.14,West,279,0.0,0.0,89,0.00,,,0.00,Weather View 32 v70,2013-02-03 10:04:00,
2013-02-03 05:09:00,46.0,42.9,30.14,West,279,0.0,0.0,89,0.00,,,0.00,Weather View 32 v70,2013-02-03 10:09:00,
2013-02-03 05:14:00,45.0,42.2,30.14,West,279,0.0,0.0,90,0.00,,,0.00,Weather View 32 v70,2013-02-03 10:14:00,
2013-02-03 05:19:00,45.0,42.2,30.14,West,279,0.0,0.0,90,0.00,,,0.00,Weather View 32 v70,2013-02-03 10:19:00,
2013-02-03 05:24:00,45.0,42.2,30.14,West,279,0.0,0.0,90,0.00,,,0.00,Weather View 32 v70,2013-02-03 10:24:00,
2013-02-03 05:29:00,45.0,42.2,30.14,West,279,0.0,0.0,90,0.00,,,0.00,Weather View 32 v70,2013-02-03 10:29:00,
2013-02-03 05:30:00,45.0,42.2,30.14,West,279,0.0,0.0,90,0.00,,,0.00,Weather View 32 v70,2013-02-03 10:30:00,
2013-02-03 05:34:00,45.0,42.2,30.14,West,279,0.0,0.0,90,0.00,,,0.00,Weather View 32 v70,2013-02-03 10:34:00,
2013-02-03 05:39:00,45.0,42.5,30.14,West,279,0.0,0.0,91,0.00,,,0.00,Weather View 32 v70,2013-02-03 10:39:00,
2013-02-03 05:44:00,45.0,42.5,30.14,West,279,0.0,0.0,91,0.00,,,0.00,Weather View 32 v70,2013-02-03 10:44:00,
2013-02-03 05:49:00,44.0,41.5,30.14,West,279,0.0,0.0,91,0.00,,,0.00,Weather View 32 v70,2013-02-03 10:49:00,
2013-02-03 05:54:00,44.0,41.5,30.15,West,279,0.0,0.0,91,0.00,,,0.00,Weather View 32 v70,2013-02-03 10:54:00,
2013-02-03 05:59:00,44.0,41.5,30.15,West,279,0.0,0.0,91,0.00,,,0.00,Weather View 32 v70,2013-02-03 10:59:00,
2013-02-03 06:04:00,44.0,41.5,30.15,West,279,0.0,0.0,91,0.00,,,0.00,Weather View 32 v70,2013-02-03 11:04:00,
2013-02-03 06:09:00,44.0,41.5,30.15,West,279,0.0,0.0,91,0.00,,,0.00,Weather View 32 v70,2013-02-03 11:09:00,
2013-02-03 06:15:00,44.0,41.5,30.15,West,279,0.0,0.0,91,0.00,,,0.00,Weather View 32 v70,2013-02-03 11:15:00,
2013-02-03 06:20:00,44.0,41.5,30.15,West,279,0.0,0.0,91,0.00,,,0.00,Weather View 32 v70,2013-02-03 11:20:00,
2013-02-03 06:25:00,44.0,41.8,30.16,West,279,0.0,0.0,92,0.00,,,0.00,Weather View 32 v70,2013-02-03 11:25:00,
2013-02-03 06:30:00,44.0,41.8,30.16,West,279,0.0,0.0,92,0.00,,,0.00,Weather View 32 v70,2013-02-03 11:30:00,
2013-02-03 06:35:00,44.0,41.8,30.16,West,279,0.0,0.0,92,0.00,,,0.00,Weather View 32 v70,2013-02-03 11:35:00,
2013-02-03 06:40:00,44.0,41.8,30.16,West,279,0.0,0.0,92,0.00,,,0.00,Weather View 32 v70,2013-02-03 11:40:00,
2013-02-03 06:45:00,44.0,41.8,30.16,West,279,0.0,0.0,92,0.00,,,0.00,Weather View 32 v70,2013-02-03 11:45:00,
2013-02-03 06:50:00,44.0,41.8,30.16,West,279,0.0,0.0,92,0.00,,,0.00,Weather View 32 v70,2013-02-03 11:50:00,
2013-02-03 06:55:00,44.0,41.8,30.16,West,279,0.0,0.0,92,0.00,,,0.00,Weather View 32 v70,2013-02-03 11:55:00,
2013-02-03 07:00:00,44.0,41.8,30.17,West,279,0.0,0.0,92,0.00,,,0.00,Weather View 32 v70,2013-02-03 12:00:00,
2013-02-03 07:05:00,44.0,41.8,30.16,West,279,0.0,0.0,92,0.00,,,0.00,Weather View 32 v70,2013-02-03 12:05:00,
2013-02-03 07:10:00,44.0,41.8,30.17,West,279,0.0,0.0,92,0.00,,,0.00,Weather View 32 v70,2013-02-03 12:10:00,
2013-02-03 07:15:00,44.0,42.1,30.17,West,279,0.0,0.0,93,0.00,,,0.00,Weather View 32 v70,2013-02-03 12:15:00,
2013-02-03 07:20:00,44.0,42.1,30.18,West,278,0.0,0.0,93,0.00,,,0.00,Weather View 32 v70,2013-02-03 12:20:00,
2013-02-03 07:25:00,44.0,42.1,30.18,West,279,0.0,0.0,93,0.00,,,0.00,Weather View 32 v70,2013-02-03 12:25:00,
2013-02-03 07:30:00,44.0,42.1,30.18,West,278,0.0,0.0,93,0.00,,,0.00,Weather View 32 v70,2013-02-03 12:30:00,
2013-02-03 07:35:00,44.0,42.1,30.18,West,279,0.0,0.0,93,0.00,,,0.00,Weather View 32 v70,2013-02-03 12:35:00,
2013-02-03 07:40:00,44.0,42.1,30.18,West,279,0.0,0.0,93,0.00,,,0.00,Weather View 32 v70,2013-02-03 12:40:00,
2013-02-03 07:45:00,45.0,43.1,30.19,West,279,0.0,0.0,93,0.00,,,0.00,Weather View 32 v70,2013-02-03 12:45:00,
2013-02-03 07:50:00,45.0,43.1,30.19,North,360,0.0,0.0,93,0.00,,,0.00,Weather View 32 v70,2013-02-03 12:50:00,
2013-02-03 07:55:00,45.0,43.4,30.19,West,279,0.0,0.0,94,0.00,,,0.00,Weather View 32 v70,2013-02-03 12:55:00,
2013-02-03 08:00:00,46.0,44.4,30.19,West,277,0.0,0.0,94,0.00,,,0.00,Weather View 32 v70,2013-02-03 13:00:00,
2013-02-03 08:05:00,47.0,45.4,30.19,West,279,0.0,0.0,94,0.00,,,0.00,Weather View 32 v70,2013-02-03 13:05:00,
2013-02-03 08:10:00,48.0,46.4,30.19,West,278,0.0,0.0,94,0.00,,,0.00,Weather View 32 v70,2013-02-03 13:10:00,
2013-02-03 08:15:00,48.0,46.4,30.19,West,278,0.0,0.0,94,0.00,,,0.00,Weather View 32 v70,2013-02-03 13:15:00,
2013-02-03 08:20:00,49.0,47.6,30.19,West,279,0.0,0.0,95,0.00,,,0.00,Weather View 32 v70,2013-02-03 13:20:00,
2013-02-03 08:25:00,51.0,49.6,30.20,West,279,0.0,0.0,95,0.00,,,0.00,Weather View 32 v70,2013-02-03 13:25:00,
2013-02-03 08:30:00,52.0,50.3,30.20,West,279,0.0,0.0,94,0.00,,,0.00,Weather View 32 v70,2013-02-03 13:30:00,
2013-02-03 08:35:00,52.0,50.3,30.20,West,279,0.0,0.0,94,0.00,,,0.00,Weather View 32 v70,2013-02-03 13:35:00,
2013-02-03 08:40:00,53.0,51.0,30.20,West,279,0.0,0.0,93,0.00,,,0.00,Weather View 32 v70,2013-02-03 13:40:00,
2013-02-03 08:45:00,54.0,51.7,30.20,West,279,0.0,0.0,92,0.00,,,0.00,Weather View 32 v70,2013-02-03 13:45:00,
2013-02-03 08:50:00,55.0,52.1,30.20,West,279,0.0,0.0,90,0.00,,,0.00,Weather View 32 v70,2013-02-03 13:50:00,
2013-02-03 08:55:00,55.0,51.5,30.20,West,279,0.0,0.0,88,0.00,,,0.00,Weather View 32 v70,2013-02-03 13:55:00,
2013-02-03 09:00:00,56.0,51.5,30.20,West,279,0.0,1.0,85,0.00,,,0.00,Weather View 32 v70,2013-02-03 14:00:00,
2013-02-03 09:05:00,57.0,51.9,30.20,West,279,0.0,2.0,83,0.00,,,0.00,Weather View 32 v70,2013-02-03 14:05:00,
2013-02-03 09:10:00,57.0,51.2,30.20,West,281,1.0,4.0,81,0.00,,,0.00,Weather View 32 v70,2013-02-03 14:10:00,
2013-02-03 09:16:00,58.0,51.5,30.20,WNW,297,1.0,4.0,79,0.00,,,0.00,Weather View 32 v70,2013-02-03 14:16:00,
2013-02-03 09:21:00,58.0,51.2,30.20,WNW,300,3.0,5.0,78,0.00,,,0.00,Weather View 32 v70,2013-02-03 14:21:00,
2013-02-03 09:26:00,58.0,50.8,30.20,NW,322,1.0,5.0,77,0.00,,,0.00,Weather View 32 v70,2013-02-03 14:26:00,
2013-02-03 09:30:00,59.0,51.1,30.20,NNE,31,4.0,6.0,75,0.00,,,0.00,Weather View 32 v70,2013-02-03 14:30:00,
2013-02-03 09:31:00,59.0,51.1,30.20,NNE,31,4.0,6.0,75,0.00,,,0.00,Weather View 32 v70,2013-02-03 14:31:00,
2013-02-03 09:36:00,59.0,50.7,30.20,NNE,31,0.0,6.0,74,0.00,,,0.00,Weather View 32 v70,2013-02-03 14:36:00,
2013-02-03 09:41:00,60.0,51.3,30.20,NNE,31,3.0,6.0,73,0.00,,,0.00,Weather View 32 v70,2013-02-03 14:41:00,
2013-02-03 09:46:00,60.0,51.3,30.20,NNE,30,0.0,6.0,73,0.00,,,0.00,Weather View 32 v70,2013-02-03 14:46:00,
2013-02-03 09:51:00,60.0,50.9,30.20,NE,36,0.0,6.0,72,0.00,,,0.00,Weather View 32 v70,2013-02-03 14:51:00,
2013-02-03 09:56:00,60.0,50.9,30.20,NE,36,3.0,6.0,72,0.00,,,0.00,Weather View 32 v70,2013-02-03 14:56:00,
2013-02-03 10:01:00,61.0,51.5,30.20,NE,36,0.0,6.0,71,0.00,,,0.00,Weather View 32 v70,2013-02-03 15:01:00,
2013-02-03 10:06:00,61.0,51.1,30.20,NE,36,0.0,6.0,70,0.00,,,0.00,Weather View 32 v70,2013-02-03 15:06:00,
2013-02-03 10:11:00,61.0,50.7,30.20,NE,36,0.0,6.0,69,0.00,,,0.00,Weather View 32 v70,2013-02-03 15:11:00,
2013-02-03 10:16:00,61.0,51.1,30.20,NE,39,1.0,6.0,70,0.00,,,0.00,Weather View 32 v70,2013-02-03 15:16:00,
2013-02-03 10:21:00,62.0,52.1,30.20,NE,38,0.0,7.0,70,0.00,,,0.00,Weather View 32 v70,2013-02-03 15:21:00,
2013-02-03 10:26:00,62.0,51.3,30.19,NE,37,0.0,7.0,68,0.00,,,0.00,Weather View 32 v70,2013-02-03 15:26:00,
2013-02-03 10:30:00,63.0,51.8,30.19,NE,46,0.0,7.0,67,0.00,,,0.00,Weather View 32 v70,2013-02-03 15:30:00,
2013-02-03 10:31:00,63.0,51.8,30.20,NE,46,0.0,7.0,67,0.00,,,0.00,Weather View 32 v70,2013-02-03 15:31:00,
2013-02-03 10:36:00,64.0,52.4,30.19,NE,43,3.0,7.0,66,0.00,,,0.00,Weather View 32 v70,2013-02-03 15:36:00,
2013-02-03 10:41:00,64.0,51.5,30.19,NNE,31,2.0,7.0,64,0.00,,,0.00,Weather View 32 v70,2013-02-03 15:41:00,
2013-02-03 10:46:00,65.0,52.1,30.19,NNE,19,0.0,8.0,63,0.00,,,0.00,Weather View 32 v70,2013-02-03 15:46:00,
2013-02-03 10:51:00,64.0,51.5,30.19,NE,39,2.0,11.0,64,0.00,,,0.00,Weather View 32 v70,2013-02-03 15:51:00,
2013-02-03 10:56:00,65.0,52.5,30.19,WNW,288,1.0,11.0,64,0.00,,,0.00,Weather View 32 v70,2013-02-03 15:56:00,
2013-02-03 11:01:00,65.0,52.1,30.19,NNE,25,4.0,11.0,63,0.00,,,0.00,Weather View 32 v70,2013-02-03 16:01:00,
2013-02-03 11:06:00,65.0,52.1,30.19,NNE,22,3.0,11.0,63,0.00,,,0.00,Weather View 32 v70,2013-02-03 16:06:00,
2013-02-03 11:11:00,66.0,52.6,30.19,WNW,294,3.0,11.0,62,0.00,,,0.00,Weather View 32 v70,2013-02-03 16:11:00,
2013-02-03 11:16:00,66.0,52.6,30.19,NW,311,2.0,11.0,62,0.00,,,0.00,Weather View 32 v70,2013-02-03 16:16:00,
2013-02-03 11:21:00,67.0,53.1,30.18,North,9,0.0,11.0,61,0.00,,,0.00,Weather View 32 v70,2013-02-03 16:21:00,
2013-02-03 11:26:00,67.0,52.6,30.18,North,355,0.0,11.0,60,0.00,,,0.00,Weather View 32 v70,2013-02-03 16:26:00,
2013-02-03 11:30:00,67.0,52.2,30.18,NE,49,0.0,11.0,59,0.00,,,0.00,Weather View 32 v70,2013-02-03 16:30:00,
2013-02-03 11:31:00,67.0,52.6,30.18,NE,49,0.0,11.0,60,0.00,,,0.00,Weather View 32 v70,2013-02-03 16:31:00,
2013-02-03 11:36:00,68.0,53.1,30.18,NNE,23,4.0,11.0,59,0.00,,,0.00,Weather View 32 v70,2013-02-03 16:36:00,
2013-02-03 11:41:00,68.0,52.6,30.18,NNW,339,0.0,11.0,58,0.00,,,0.00,Weather View 32 v70,2013-02-03 16:41:00,
2013-02-03 11:46:00,68.0,52.2,30.18,NNW,338,0.0,11.0,57,0.00,,,0.00,Weather View 32 v70,2013-02-03 16:46:00,
2013-02-03 11:51:00,68.0,52.6,30.18,NNW,340,0.0,10.0,58,0.00,,,0.00,Weather View 32 v70,2013-02-03 16:51:00,
2013-02-03 11:56:00,68.0,52.6,30.17,NW,310,0.0,10.0,58,0.00,,,0.00,Weather View 32 v70,2013-02-03 16:56:00,
2013-02-03 12:01:00,68.0,52.6,30.17,NW,315,3.0,10.0,58,0.00,,,0.00,Weather View 32 v70,2013-02-03 17:01:00,
2013-02-03 12:06:00,68.0,52.6,30.17,West,272,0.0,10.0,58,0.00,,,0.00,Weather View 32 v70,2013-02-03 17:06:00,
2013-02-03 12:11:00,68.0,52.2,30.17,NE,44,5.0,10.0,57,0.00,,,0.00,Weather View 32 v70,2013-02-03 17:11:00,
2013-02-03 12:16:00,68.0,52.6,30.17,NNE,23,0.0,10.0,58,0.00,,,0.00,Weather View 32 v70,2013-02-03 17:16:00,
2013-02-03 12:21:00,69.0,53.6,30.16,NNW,337,0.0,7.0,58,0.00,,,0.00,Weather View 32 v70,2013-02-03 17:21:00,
2013-02-03 12:26:00,69.0,53.1,30.16,NNW,340,1.0,7.0,57,0.00,,,0.00,Weather View 32 v70,2013-02-03 17:26:00,
2013-02-03 12:30:00,70.0,54.0,30.16,NNW,340,0.0,6.0,57,0.00,,,0.00,Weather View 32 v70,2013-02-03 17:30:00,
2013-02-03 12:31:00,69.0,52.6,30.16,NNE,23,0.0,6.0,56,0.00,,,0.00,Weather View 32 v70,2013-02-03 17:31:00,
2013-02-03 12:36:00,69.0,53.1,30.16,NE,36,0.0,7.0,57,0.00,,,0.00,Weather View 32 v70,2013-02-03 17:36:00,
2013-02-03 12:41:00,68.0,52.6,30.16,NE,40,4.0,8.0,58,0.00,,,0.00,Weather View 32 v70,2013-02-03 17:41:00,
2013-02-03 12:47:00,68.0,53.1,30.16,WNW,286,3.0,8.0,59,0.00,,,0.00,Weather View 32 v70,2013-02-03 17:47:00,
2013-02-03 12:52:00,68.0,52.6,30.15,WSW,246,6.0,8.0,58,0.00,,,0.00,Weather View 32 v70,2013-02-03 17:52:00,
2013-02-03 12:57:00,69.0,53.6,30.15,WNW,287,4.0,8.0,58,0.00,,,0.00,Weather View 32 v70,2013-02-03 17:57:00,
2013-02-03 13:02:00,69.0,53.6,30.14,WNW,291,0.0,8.0,58,0.00,,,0.00,Weather View 32 v70,2013-02-03 18:02:00,
2013-02-03 13:07:00,69.0,53.1,30.14,NNE,30,0.0,8.0,57,0.00,,,0.00,Weather View 32 v70,2013-02-03 18:07:00,
2013-02-03 13:12:00,69.0,53.6,30.14,NNW,340,2.0,8.0,58,0.00,,,0.00,Weather View 32 v70,2013-02-03 18:12:00,
2013-02-03 13:17:00,69.0,54.0,30.14,NNW,329,0.0,8.0,59,0.00,,,0.00,Weather View 32 v70,2013-02-03 18:17:00,
2013-02-03 13:22:00,69.0,53.6,30.13,WNW,300,3.0,8.0,58,0.00,,,0.00,Weather View 32 v70,2013-02-03 18:22:00,
2013-02-03 13:27:00,70.0,54.5,30.13,NNW,346,2.0,8.0,58,0.00,,,0.00,Weather View 32 v70,2013-02-03 18:27:00,
2013-02-03 13:30:00,70.0,54.0,30.13,NW,324,0.0,8.0,57,0.00,,,0.00,Weather View 32 v70,2013-02-03 18:30:00,
2013-02-03 13:32:00,70.0,54.0,30.13,NNW,335,0.0,8.0,57,0.00,,,0.00,Weather View 32 v70,2013-02-03 18:32:00,
2013-02-03 13:37:00,70.0,54.0,30.13,NW,323,1.0,8.0,57,0.00,,,0.00,Weather View 32 v70,2013-02-03 18:37:00,
2013-02-03 13:42:00,70.0,54.5,30.13,North,5,0.0,8.0,58,0.00,,,0.00,Weather View 32 v70,2013-02-03 18:42:00,
2013-02-03 13:47:00,70.0,54.5,30.12,WNW,283,2.0,8.0,58,0.00,,,0.00,Weather View 32 v70,2013-02-03 18:47:00,
2013-02-03 13:52:00,69.0,54.0,30.12,NNE,32,1.0,8.0,59,0.00,,,0.00,Weather View 32 v70,2013-02-03 18:52:00,
2013-02-03 13:57:00,69.0,54.5,30.12,NNE,26,0.0,8.0,60,0.00,,,0.00,Weather View 32 v70,2013-02-03 18:57:00,
2013-02-03 14:02:00,70.0,54.5,30.12,NNE,26,0.0,8.0,58,0.00,,,0.00,Weather View 32 v70,2013-02-03 19:02:00,
2013-02-03 14:07:00,70.0,54.5,30.11,NNE,14,0.0,8.0,58,0.00,,,0.00,Weather View 32 v70,2013-02-03 19:07:00,
2013-02-03 14:12:00,71.0,55.4,30.12,NE,34,2.0,8.0,58,0.00,,,0.00,Weather View 32 v70,2013-02-03 19:12:00,
2013-02-03 14:17:00,71.0,55.0,30.12,North,360,3.0,8.0,57,0.00,,,0.00,Weather View 32 v70,2013-02-03 19:17:00,
2013-02-03 14:22:00,71.0,55.0,30.11,North,360,0.0,8.0,57,0.00,,,0.00,Weather View 32 v70,2013-02-03 19:22:00,
2013-02-03 14:27:00,71.0,55.4,30.11,West,280,1.0,8.0,58,0.00,,,0.00,Weather View 32 v70,2013-02-03 19:27:00,
2013-02-03 14:30:00,71.0,55.4,30.11,West,281,0.0,8.0,58,0.00,,,0.00,Weather View 32 v70,2013-02-03 19:30:00,
2013-02-03 14:32:00,71.0,55.9,30.11,West,261,7.0,8.0,59,0.00,,,0.00,Weather View 32 v70,2013-02-03 19:32:00,
2013-02-03 14:37:00,70.0,55.4,30.11,West,266,5.0,9.0,60,0.00,,,0.00,Weather View 32 v70,2013-02-03 19:37:00,
2013-02-03 14:42:00,69.0,55.8,30.11,West,261,0.0,9.0,63,0.00,,,0.00,Weather View 32 v70,2013-02-03 19:42:00,
2013-02-03 14:47:00,69.0,55.8,30.11,WNW,302,2.0,9.0,63,0.00,,,0.00,Weather View 32 v70,2013-02-03 19:47:00,
2013-02-03 14:52:00,69.0,55.4,30.11,West,260,5.0,9.0,62,0.00,,,0.00,Weather View 32 v70,2013-02-03 19:52:00,
2013-02-03 14:57:00,69.0,55.8,30.11,WNW,301,0.0,9.0,63,0.00,,,0.00,Weather View 32 v70,2013-02-03 19:57:00,
2013-02-03 15:02:00,70.0,55.9,30.10,WSW,242,3.0,9.0,61,0.00,,,0.00,Weather View 32 v70,2013-02-03 20:02:00,
2013-02-03 15:07:00,70.0,55.9,30.10,West,276,1.0,9.0,61,0.00,,,0.00,Weather View 32 v70,2013-02-03 20:07:00,
2013-02-03 15:12:00,70.0,55.9,30.10,WNW,294,3.0,9.0,61,0.00,,,0.00,Weather View 32 v70,2013-02-03 20:12:00,
2013-02-03 15:17:00,70.0,55.9,30.10,WNW,303,5.0,9.0,61,0.00,,,0.00,Weather View 32 v70,2013-02-03 20:17:00,
2013-02-03 15:22:00,70.0,56.3,30.10,WSW,248,3.0,9.0,62,0.00,,,0.00,Weather View 32 v70,2013-02-03 20:22:00,
2013-02-03 15:27:00,70.0,56.3,30.10,North,360,0.0,9.0,62,0.00,,,0.00,Weather View 32 v70,2013-02-03 20:27:00,
2013-02-03 15:32:00,70.0,56.8,30.10,NNW,332,2.0,9.0,63,0.00,,,0.00,Weather View 32 v70,2013-02-03 20:32:00,
2013-02-03 15:37:00,70.0,56.8,30.10,West,279,0.0,9.0,63,0.00,,,0.00,Weather View 32 v70,2013-02-03 20:37:00,
2013-02-03 15:42:00,70.0,56.8,30.10,WNW,290,4.0,9.0,63,0.00,,,0.00,Weather View 32 v70,2013-02-03 20:42:00,
2013-02-03 15:47:00,69.0,56.3,30.10,West,278,0.0,9.0,64,0.00,,,0.00,Weather View 32 v70,2013-02-03 20:47:00,
2013-02-03 15:52:00,69.0,56.7,30.10,NW,311,3.0,8.0,65,0.00,,,0.00,Weather View 32 v70,2013-02-03 20:52:00,
2013-02-03 15:57:00,68.0,55.8,30.10,WNW,290,4.0,7.0,65,0.00,,,0.00,Weather View 32 v70,2013-02-03 20:57:00,
2013-02-03 16:02:00,68.0,55.8,30.10,WNW,300,0.0,7.0,65,0.00,,,0.00,Weather View 32 v70,2013-02-03 21:02:00,
2013-02-03 16:07:00,68.0,55.3,30.10,NNW,348,3.0,8.0,64,0.00,,,0.00,Weather View 32 v70,2013-02-03 21:07:00,
2013-02-03 16:12:00,68.0,55.8,30.10,WNW,287,1.0,8.0,65,0.00,,,0.00,Weather View 32 v70,2013-02-03 21:12:00,
2013-02-03 16:17:00,68.0,55.3,30.10,WNW,298,0.0,8.0,64,0.00,,,0.00,Weather View 32 v70,2013-02-03 21:17:00,
2013-02-03 16:22:00,68.0,55.3,30.10,North,355,1.0,8.0,64,0.00,,,0.00,Weather View 32 v70,2013-02-03 21:22:00,
2013-02-03 16:27:00,68.0,54.9,30.10,NNW,341,3.0,8.0,63,0.00,,,0.00,Weather View 32 v70,2013-02-03 21:27:00,
2013-02-03 16:32:00,68.0,54.9,30.10,NNW,339,0.0,8.0,63,0.00,,,0.00,Weather View 32 v70,2013-02-03 21:32:00,
2013-02-03 16:37:00,68.0,54.9,30.10,NNW,338,0.0,8.0,63,0.00,,,0.00,Weather View 32 v70,2013-02-03 21:37:00,
2013-02-03 16:43:00,68.0,55.3,30.10,NNW,340,2.0,8.0,64,0.00,,,0.00,Weather View 32 v70,2013-02-03 21:43:00,
2013-02-03 16:48:00,68.0,55.3,30.10,WNW,287,3.0,8.0,64,0.00,,,0.00,Weather View 32 v70,2013-02-03 21:48:00,
2013-02-03 16:53:00,68.0,55.3,30.10,WNW,291,2.0,8.0,64,0.00,,,0.00,Weather View 32 v70,2013-02-03 21:53:00,
2013-02-03 16:58:00,68.0,55.3,30.10,West,264,2.0,8.0,64,0.00,,,0.00,Weather View 32 v70,2013-02-03 21:58:00,
2013-02-03 17:03:00,67.0,54.4,30.10,WNW,296,2.0,8.0,64,0.00,,,0.00,Weather View 32 v70,2013-02-03 22:03:00,
2013-02-03 17:08:00,67.0,54.4,30.10,WNW,282,3.0,8.0,64,0.00,,,0.00,Weather View 32 v70,2013-02-03 22:08:00,
2013-02-03 17:13:00,67.0,54.8,30.10,WNW,283,3.0,8.0,65,0.00,,,0.00,Weather View 32 v70,2013-02-03 22:13:00,
2013-02-03 17:18:00,67.0,55.2,30.10,West,261,1.0,8.0,66,0.00,,,0.00,Weather View 32 v70,2013-02-03 22:18:00,
2013-02-03 17:23:00,67.0,55.2,30.10,West,264,0.0,8.0,66,0.00,,,0.00,Weather View 32 v70,2013-02-03 22:23:00,
2013-02-03 17:28:00,67.0,55.6,30.10,West,265,2.0,8.0,67,0.00,,,0.00,Weather View 32 v70,2013-02-03 22:28:00,
2013-02-03 17:33:00,66.0,55.1,30.10,WSW,242,0.0,8.0,68,0.00,,,0.00,Weather View 32 v70,2013-02-03 22:33:00,
2013-02-03 17:38:00,66.0,55.5,30.10,WSW,241,0.0,8.0,69,0.00,,,0.00,Weather View 32 v70,2013-02-03 22:38:00,
2013-02-03 17:43:00,66.0,55.9,30.10,WSW,242,0.0,8.0,70,0.00,,,0.00,Weather View 32 v70,2013-02-03 22:43:00,
2013-02-03 17:48:00,66.0,56.3,30.10,West,262,0.0,8.0,71,0.00,,,0.00,Weather View 32 v70,2013-02-03 22:48:00,
2013-02-03 17:53:00,66.0,56.3,30.10,West,261,0.0,8.0,71,0.00,,,0.00,Weather View 32 v70,2013-02-03 22:53:00,
2013-02-03 17:58:00,65.0,55.7,30.10,SW,236,1.0,6.0,72,0.00,,,0.00,Weather View 32 v70,2013-02-03 22:58:00,
2013-02-03 18:03:00,64.0,55.1,30.10,SW,236,0.0,6.0,73,0.00,,,0.00,Weather View 32 v70,2013-02-03 23:03:00,
2013-02-03 18:08:00,64.0,55.9,30.10,SW,236,0.0,6.0,75,0.00,,,0.00,Weather View 32 v70,2013-02-03 23:08:00,
2013-02-03 18:13:00,63.0,54.9,30.10,SW,236,0.0,6.0,75,0.00,,,0.00,Weather View 32 v70,2013-02-03 23:13:00,
2013-02-03 18:18:00,63.0,55.7,30.10,SW,236,0.0,6.0,77,0.00,,,0.00,Weather View 32 v70,2013-02-03 23:18:00,
2013-02-03 18:23:00,63.0,55.7,30.10,SW,236,0.0,6.0,77,0.00,,,0.00,Weather View 32 v70,2013-02-03 23:23:00,
2013-02-03 18:28:00,62.0,55.0,30.10,SW,236,0.0,6.0,78,0.00,,,0.00,Weather View 32 v70,2013-02-03 23:28:00,
2013-02-03 18:33:00,62.0,55.4,30.10,SW,236,0.0,5.0,79,0.00,,,0.00,Weather View 32 v70,2013-02-03 23:33:00,
2013-02-03 18:38:00,62.0,55.7,30.10,SW,236,0.0,5.0,80,0.00,,,0.00,Weather View 32 v70,2013-02-03 23:38:00,
2013-02-03 18:43:00,62.0,56.1,30.10,SW,236,0.0,5.0,81,0.00,,,0.00,Weather View 32 v70,2013-02-03 23:43:00,
2013-02-03 18:48:00,61.0,55.1,30.10,SW,236,0.0,5.0,81,0.00,,,0.00,Weather View 32 v70,2013-02-03 23:48:00,
2013-02-03 18:53:00,61.0,55.5,30.10,SW,236,0.0,5.0,82,0.00,,,0.00,Weather View 32 v70,2013-02-03 23:53:00,
2013-02-03 18:58:00,61.0,55.8,30.10,SW,236,0.0,3.0,83,0.00,,,0.00,Weather View 32 v70,2013-02-03 23:58:00,
2013-02-03 19:03:00,61.0,55.8,30.10,SW,236,0.0,3.0,83,0.00,,,0.00,Weather View 32 v70,2013-02-04 00:03:00,
2013-02-03 19:08:00,60.0,55.1,30.10,SW,236,0.0,1.0,84,0.00,,,0.00,Weather View 32 v70,2013-02-04 00:08:00,
2013-02-03 19:13:00,60.0,55.1,30.10,SW,236,0.0,1.0,84,0.00,,,0.00,Weather View 32 v70,2013-02-04 00:13:00,
2013-02-03 19:18:00,60.0,55.5,30.10,SW,236,0.0,0.0,85,0.00,,,0.00,Weather View 32 v70,2013-02-04 00:18:00,
2013-02-03 19:23:00,60.0,55.5,30.10,SW,236,0.0,0.0,85,0.00,,,0.00,Weather View 32 v70,2013-02-04 00:23:00,
2013-02-03 19:28:00,60.0,55.8,30.10,SW,236,0.0,0.0,86,0.00,,,0.00,Weather View 32 v70,2013-02-04 00:28:00,
2013-02-03 19:33:00,59.0,54.8,30.11,SW,236,0.0,0.0,86,0.00,,,0.00,Weather View 32 v70,2013-02-04 00:33:00,
2013-02-03 19:38:00,59.0,54.8,30.11,SW,236,0.0,0.0,86,0.00,,,0.00,Weather View 32 v70,2013-02-04 00:38:00,
2013-02-03 19:44:00,59.0,54.8,30.11,SW,236,0.0,0.0,86,0.00,,,0.00,Weather View 32 v70,2013-02-04 00:44:00,
2013-02-03 19:49:00,59.0,55.1,30.11,SW,236,0.0,0.0,87,0.00,,,0.00,Weather View 32 v70,2013-02-04 00:49:00,
2013-02-03 19:54:00,58.0,54.1,30.12,SW,236,0.0,0.0,87,0.00,,,0.00,Weather View 32 v70,2013-02-04 00:54:00,
2013-02-03 19:59:00,58.0,54.1,30.12,SW,236,0.0,0.0,87,0.00,,,0.00,Weather View 32 v70,2013-02-04 00:59:00,
2013-02-03 20:04:00,58.0,54.5,30.12,SW,236,0.0,0.0,88,0.00,,,0.00,Weather View 32 v70,2013-02-04 01:04:00,
2013-02-03 20:09:00,58.0,54.5,30.11,SW,236,0.0,0.0,88,0.00,,,0.00,Weather View 32 v70,2013-02-04 01:09:00,
2013-02-03 20:14:00,58.0,54.8,30.12,SW,236,0.0,0.0,89,0.00,,,0.00,Weather View 32 v70,2013-02-04 01:14:00,
2013-02-03 20:19:00,58.0,54.8,30.12,SW,236,0.0,0.0,89,0.00,,,0.00,Weather View 32 v70,2013-02-04 01:19:00,
2013-02-03 20:24:00,58.0,55.1,30.12,SW,236,0.0,0.0,90,0.00,,,0.00,Weather View 32 v70,2013-02-04 01:24:00,
2013-02-03 20:29:00,58.0,55.1,30.12,SW,236,0.0,0.0,90,0.00,,,0.00,Weather View 32 v70,2013-02-04 01:29:00,
2013-02-03 20:34:00,58.0,55.1,30.12,SW,236,0.0,0.0,90,0.00,,,0.00,Weather View 32 v70,2013-02-04 01:34:00,
2013-02-03 20:39:00,58.0,55.1,30.12,SW,236,0.0,0.0,90,0.00,,,0.00,Weather View 32 v70,2013-02-04 01:39:00,
2013-02-03 20:44:00,58.0,55.1,30.12,SW,236,0.0,0.0,90,0.00,,,0.00,Weather View 32 v70,2013-02-04 01:44:00,
2013-02-03 20:49:00,58.0,55.1,30.12,SW,236,0.0,0.0,90,0.00,,,0.00,Weather View 32 v70,2013-02-04 01:49:00,
2013-02-03 20:54:00,57.0,54.1,30.12,SW,236,0.0,0.0,90,0.00,,,0.00,Weather View 32 v70,2013-02-04 01:54:00,
2013-02-03 20:59:00,57.0,54.1,30.12,SW,236,0.0,0.0,90,0.00,,,0.00,Weather View 32 v70,2013-02-04 01:59:00,
2013-02-03 21:04:00,57.0,54.1,30.12,SW,236,0.0,0.0,90,0.00,,,0.00,Weather View 32 v70,2013-02-04 02:04:00,
2013-02-03 21:09:00,57.0,54.1,30.12,SW,236,0.0,0.0,90,0.00,,,0.00,Weather View 32 v70,2013-02-04 02:09:00,
2013-02-03 21:14:00,57.0,54.1,30.12,SW,236,0.0,0.0,90,0.00,,,0.00,Weather View 32 v70,2013-02-04 02:14:00,
2013-02-03 21:19:00,56.0,53.1,30.12,SW,236,0.0,0.0,90,0.00,,,0.00,Weather View 32 v70,2013-02-04 02:19:00,
2013-02-03 21:24:00,56.0,53.1,30.12,SW,236,0.0,0.0,90,0.00,,,0.00,Weather View 32 v70,2013-02-04 02:24:00,
2013-02-03 21:29:00,56.0,53.4,30.12,SW,236,0.0,0.0,91,0.00,,,0.00,Weather View 32 v70,2013-02-04 02:29:00,
2013-02-03 21:34:00,56.0,53.4,30.12,SW,236,0.0,0.0,91,0.00,,,0.00,Weather View 32 v70,2013-02-04 02:34:00,
2013-02-03 21:39:00,56.0,53.4,30.13,SW,236,0.0,0.0,91,0.00,,,0.00,Weather View 32 v70,2013-02-04 02:39:00,
2013-02-03 21:44:00,56.0,53.7,30.12,SW,236,0.0,0.0,92,0.00,,,0.00,Weather View 32 v70,2013-02-04 02:44:00,
2013-02-03 21:49:00,55.0,52.4,30.12,SW,236,0.0,0.0,91,0.00,,,0.00,Weather View 32 v70,2013-02-04 02:49:00,
2013-02-03 21:54:00,55.0,52.7,30.13,SW,236,0.0,0.0,92,0.00,,,0.00,Weather View 32 v70,2013-02-04 02:54:00,
2013-02-03 21:59:00,55.0,52.7,30.13,SW,236,0.0,0.0,92,0.00,,,0.00,Weather View 32 v70,2013-02-04 02:59:00,
2013-02-03 22:04:00,55.0,52.4,30.13,SW,236,0.0,0.0,91,0.00,,,0.00,Weather View 32 v70,2013-02-04 03:04:00,
2013-02-03 22:09:00,55.0,52.7,30.13,SW,236,0.0,0.0,92,0.00,,,0.00,Weather View 32 v70,2013-02-04 03:09:00,
2013-02-03 22:14:00,55.0,52.7,30.13,SW,236,0.0,0.0,92,0.00,,,0.00,Weather View 32 v70,2013-02-04 03:14:00,
2013-02-03 22:19:00,54.0,51.7,30.13,SW,236,0.0,0.0,92,0.00,,,0.00,Weather View 32 v70,2013-02-04 03:19:00,
2013-02-03 22:24:00,54.0,51.4,30.13,SW,236,0.0,0.0,91,0.00,,,0.00,Weather View 32 v70,2013-02-04 03:24:00,
2013-02-03 22:29:00,54.0,51.7,30.13,SW,236,0.0,0.0,92,0.00,,,0.00,Weather View 32 v70,2013-02-04 03:29:00,
2013-02-03 22:34:00,53.0,50.7,30.13,SW,236,0.0,0.0,92,0.00,,,0.00,Weather View 32 v70,2013-02-04 03:34:00,
2013-02-03 22:39:00,53.0,50.7,30.13,SW,236,0.0,0.0,92,0.00,,,0.00,Weather View 32 v70,2013-02-04 03:39:00,
2013-02-03 22:44:00,53.0,50.7,30.13,SW,236,0.0,0.0,92,0.00,,,0.00,Weather View 32 v70,2013-02-04 03:44:00,
2013-02-03 22:49:00,52.0,49.7,30.12,WSW,237,0.0,0.0,92,0.00,,,0.00,Weather View 32 v70,2013-02-04 03:49:00,
2013-02-03 22:54:00,52.0,49.7,30.13,SW,236,0.0,0.0,92,0.00,,,0.00,Weather View 32 v70,2013-02-04 03:54:00,
2013-02-03 22:59:00,52.0,49.7,30.13,SW,236,0.0,0.0,92,0.00,,,0.00,Weather View 32 v70,2013-02-04 03:59:00,
2013-02-03 23:04:00,52.0,50.0,30.13,SW,236,0.0,0.0,93,0.00,,,0.00,Weather View 32 v70,2013-02-04 04:04:00,
2013-02-03 23:09:00,52.0,50.0,30.12,SW,236,0.0,0.0,93,0.00,,,0.00,Weather View 32 v70,2013-02-04 04:09:00,
2013-02-03 23:15:00,52.0,50.0,30.13,WSW,237,0.0,0.0,93,0.00,,,0.00,Weather View 32 v70,2013-02-04 04:15:00,
2013-02-03 23:20:00,52.0,50.0,30.12,SW,236,0.0,0.0,93,0.00,,,0.00,Weather View 32 v70,2013-02-04 04:20:00,
2013-02-03 23:25:00,51.0,48.8,30.12,SW,236,0.0,0.0,92,0.00,,,0.00,Weather View 32 v70,2013-02-04 04:25:00,
2013-02-03 23:30:00,51.0,49.0,30.12,SW,234,0.0,0.0,93,0.00,,,0.00,Weather View 32 v70,2013-02-04 04:30:00,
2013-02-03 23:35:00,51.0,49.0,30.13,North,360,0.0,0.0,93,0.00,,,0.00,Weather View 32 v70,2013-02-04 04:35:00,
2013-02-03 23:40:00,51.0,49.0,30.12,SW,236,0.0,0.0,93,0.00,,,0.00,Weather View 32 v70,2013-02-04 04:40:00,
2013-02-03 23:45:00,51.0,49.0,30.12,WSW,237,0.0,0.0,93,0.00,,,0.00,Weather View 32 v70,2013-02-04 04:45:00,
2013-02-03 23:50:00,51.0,49.0,30.12,SW,235,0.0,0.0,93,0.00,,,0.00,Weather View 32 v70,2013-02-04 04:50:00,
2013-02-03 23:55:00,51.0,49.0,30.12,WSW,237,0.0,0.0,93,0.00,,,0.00,Weather View 32 v70,2013-02-04 04:55:00,